Regional Weather Roundup
Issued by NWS Newport/Morehead, NC

Current Version | Previous Version | Text Only | Print | Product List | Glossary Off
Versions: 1 2 3 4 5 6 7 8 9 10 11 12 13 14 15 16 17 18 19 20 21 22 23 24 25 26 27 28 29 30 31 32 33 34 35 36 37 38 39 40 41 42 43 44 45 46 47 48 49 50
000 ASUS42 KMHX 181310 RWRMHX WEATHER ROUNDUP FOR EASTERN NORTH CAROLINA NATIONAL WEATHER SERVICE NEWPORT/MOREHEAD CITY NC 900 AM EDT THU SEP 18 2014 NOTE: "FAIR" INDICATES FEW OR NO CLOUDS BELOW 12,000 FEET WITH NO SIGNIFICANT WEATHER AND/OR OBSTRUCTIONS TO VISIBILITY NCZ015>017-031-032-045>047-102-103-181400- NORTH COAST CITY SKY/WX TMP DP RH WIND PRES REMARKS EDENTON MOSUNNY 66 63 88 NE5 29.99R ELIZABETH CITY SUNNY 69 61 75 N5 29.98S KITTY HAWK SUNNY 72 57 58 NE7 29.96S MANTEO SUNNY 72 58 60 NE10 29.97S $$ NCZ045>047-081-094-103-104-181400- CENTRAL COAST CITY SKY/WX TMP DP RH WIND PRES REMARKS FRISCO SUNNY 72 61 68 NE6G16 29.96R SWANQUARTER N/A 72 N/A N/A NE6 29.94R $$ NCZ095-097-098-100-101-181400- SOUTHERN COAST CITY SKY/WX TMP DP RH WIND PRES REMARKS BEAUFORT SUNNY 75 65 70 NE8 29.95R CEDAR ISLAND N/A 75 N/A N/A NE16 30.00R JACKSONVILLE CLOUDY 69 63 81 N6 29.96R NEWPORT NOT AVBL PINEY ISLAND SUNNY 76 64 66 NE13G23 29.95R WILMINGTON SUNNY 71 66 84 NE10 29.95R $$ NCZ011>013-027>030-043-044-078>080-089-090>093-098-181400- COASTAL PLAIN CITY SKY/WX TMP DP RH WIND PRES REMARKS AHOSKIE SUNNY 65 60 85 CALM 30.00S CLINTON SUNNY 69 64 85 NE6 29.98S ELIZABETHTOWN PTSUNNY 69 65 88 CALM 29.97R GOLDSBORO SUNNY 67 66 97 CALM 29.97S GREENVILLE MOSUNNY 68 63 83 NE5 30.00S HAVELOCK PTSUNNY 73 65 75 NE10 29.97R KENANSVILLE SUNNY 68 63 85 CALM 29.99R KINSTON MOSUNNY 68 64 88 NE5 29.99S NEW BERN MOSUNNY 71 63 75 NE5 29.98R RICHLANDS PTSUNNY 68 63 83 N7 29.97R ROANOKE RAPIDS NOT AVBL ROCKY MOUNT SUNNY 67 62 84 NE3 30.00R WASHINGTON MOSUNNY 66 63 90 NE5 29.99R WHITEVILLE CLOUDY 70 65 85 NE6 29.96R $$ AMZ130-135-150-152-154-156-158-170-250-252-270-ANZ085-086-088-633-658-670-181400- MARINE OBSERVATIONS STATION/POSITION TIME TEMP WIND PRES WAVE SWELL AIR SEA DIR/SP/G HT/PER HT/PER (UTC) (F) (DEG/KT/KT) (MB) (FT/S) (FT/S) CHESAPEAKE LIGHT 1200 70 30/ 12/ 14 1016.0 BUOY 44014 1300 71 77 20/ 16/ 19 1014.4 4/12 3/12 DUCK 1300 71 75 40/ 15/ 16 1014.1 2E DUCK 1300 N/A 4/13 3/13 OREGON INLET 1300 72 74 20/ 12/ 17 1014.5 BUOY 44095 1300 76 N/A 5/13 3/13 20E OREGON INLET NOT AVBL HATTERAS CG 1300 74 77 30/ 12/ 14 1014.6 DIAMOND BUOY 1300 75 360/ 17/ 21 1013.4 6/13 3/13 CAPE LOOKOUT 1200 75 40/ 13/ 15 1013.4 BEAUFORT LAB 1300 74 79 40/ 8/ 11 1013.4 30 SE NEW RIVER 1300 78 82 40/ 16/ 17 1013.6 4/14 3/14 5 SE WRIGHTSVILL 1200 72 81 40/ 14/ 16 N/A BUOY 41002 1208 79 82 350/ 8/ 12 1012.9 4/10 3/10 BUOY 41004 1300 79 83 20/ 2/ 4 1013.3 4/11 3/11 $$

USA.gov is the U.S. government's official web portal to all federal, state and local government web resources and services.